カタログに戻る

STARLINK-37060

運用中通信SSO
NORAD 68150·PAYLOAD·🇺🇸 United States

打ち上げ Mar 13, 2026 から Vandenberg Space Force Base

Loading…

次のパス (今後24時間)

TLE

最新Source: CelesTrak SupGP

元期: Sep 15, 2026, 02:45 UTC

1 68150C 26049J   26258.11506944 -.00177720  00000+0 -55175-2 0  2582
2 68150  97.2836 278.1879 0001061  85.1047  82.9649 15.33525968    18

AllMySatでSTARLINK-37060をリアルタイム追跡

Download on the App Store